[[{"header":{"parameterUnit":"m.s-1","parameterCategory":1,"la1":30.2991,"la2":30.254,"lo1":-89.0895,"lo2":-89.0444,"dy":0.0017,"dx":0.0017,"nx":28,"ny":28,"refTime":"2023-06-19T21:00:00:Z","depth":0,"parameterNumber":2,"parameterNumberName":"U-component_of_WINDS"},"data":[0,0,0,0,0,0,0,0,0,0,0,0,0,0,0,0,0,0,0,0,0,0,0,0,0,0,0,0,0,0,0,0,0,0,0,0,0,0,0,0,0,0,0,0,0,0,0,0,0,0,0,0,0,0,0,0,0,0,5.7535,5.7536,0,5.763,5.7631,5.7632,5.7523,5.7519,5.7515,5.7511,5.7612,5.7618,5.7624,0,0,0,0,0,0,0,0,0,0,0,0,0,5.7261,5.7266,5.7535,5.7536,5.7537,5.763,5.7631,5.7633,5.7524,5.7519,5.7514,5.7509,5.761,5.7617,5.7625,0,0,0,0,0,0,0,0,0,0,0,0,0,5.7371,5.7268,5.7534,5.7494,5.7491,5.763,5.7631,5.7633,5.7525,5.7519,5.7513,5.7507,5.7607,5.7616,5.7626,5.781,0,0,5.7656,5.766,0,0,0,0,0,0,0,0,5.7364,5.7381,5.7499,5.7497,5.7494,5.7558,5.7571,5.7692,5.7527,5.7512,5.7511,5.7504,5.7599,5.7609,5.7641,5.7814,5.7819,5.7657,5.7663,5.7667,5.767,0,0,0,0,0,0,0,5.7357,5.7376,5.7572,5.7501,5.7498,5.7472,5.7481,5.7594,5.7589,5.7513,5.7505,5.7518,5.7597,5.7632,5.7642,5.782,5.7656,5.7665,5.7671,5.7675,5.815,5.8156,0,0,0,0,0,0,5.7354,5.737,5.7569,5.7575,5.7413,5.7482,5.7492,5.7544,5.7588,5.7588,5.7523,5.7513,5.7618,5.7631,5.7645,5.7864,5.7667,5.7676,5.7682,5.8143,5.8151,5.8158,0,0,0,0,0,0,5.7348,5.7372,5.7566,5.7471,5.7493,5.7493,5.7553,5.7549,5.7584,5.7595,5.7594,5.756,5.7614,5.7632,5.7769,5.7865,5.768,5.7689,5.8135,5.8145,5.8155,5.8301,0,0,0,0,0,0,5.7341,5.7371,5.744,5.7473,5.7499,5.7688,5.7559,5.7556,5.7601,5.7588,5.7629,5.763,5.761,5.7756,5.7779,5.7876,5.7697,5.8126,5.814,5.8151,5.8288,5.8315,5.8339,0,0,0,0,0,5.7331,5.7478,5.7444,5.7469,5.7585,5.7694,5.7708,5.7682,5.7609,5.7679,5.7686,5.7629,5.7851,5.7771,5.7796,5.7897,5.812,5.8136,5.8151,5.8277,5.831,5.8338,0,0,0,0,0,0,5.7458,5.7482,5.7445,5.7606,5.7649,5.7675,5.7763,5.7718,5.7782,5.7768,5.7733,5.7743,5.789,5.7907,5.7817,5.8077,5.7974,5.7995,5.8061,5.8092,5.8117,5.8111,5.7705,0,0,0,0,0,5.7505,5.759,5.7606,5.7748,5.7771,5.7763,5.7809,5.7785,5.7828,5.7846,5.7863,5.7907,5.7987,5.804,5.8114,5.8289,5.8297,5.8372,5.8397,5.8418,5.8437,5.8531,5.8564,5.8208,5.8208,5.8208,0,0,5.7602,5.7626,5.7682,5.7774,5.7803,5.7893,5.7779,5.7879,5.7946,5.7861,5.7992,5.8007,5.8054,5.8211,5.8282,5.823,5.8537,5.8437,5.8453,5.8461,5.855,5.8584,5.8614,5.8219,5.8217,5.8215,0,0,5.7826,5.7852,5.7972,5.8005,5.8051,5.8045,5.8074,5.8107,5.8114,5.8244,5.8183,5.8262,5.84,5.8436,5.8473,5.871,5.866,5.8735,5.8868,5.8961,5.8989,5.9013,5.9099,5.913,5.8754,5.8754,5.8755,0,5.7942,5.8074,5.804,5.8145,5.8188,5.8114,5.8236,5.8269,5.8338,5.837,5.8311,5.8482,5.8509,5.8674,5.8732,5.8764,5.8797,5.8731,5.8987,5.9012,5.9034,5.9115,5.9148,5.8763,5.8762,5.8761,5.876,0,5.8214,5.8307,5.8399,5.8466,5.8519,5.8632,5.8617,5.8674,5.8645,5.8646,5.8781,5.881,5.8889,5.8926,5.8899,5.9088,5.9054,5.8992,5.8888,5.9078,5.9153,5.9184,5.8776,5.8773,5.877,5.8768,0,0,5.8522,5.8568,5.8603,5.8633,5.8678,5.875,5.8859,5.8935,5.8986,5.9036,5.9128,5.9246,5.9189,5.923,5.9207,5.9288,5.9475,5.9215,5.9216,5.9263,5.9686,5.9733,5.977,5.9441,5.9447,5.9452,5.9682,0,5.8747,5.8936,5.8909,5.9092,5.9178,5.9109,5.9204,5.9243,5.9247,5.9321,5.9324,5.9409,5.9326,5.9351,5.9428,5.9436,5.9559,5.9419,5.9528,5.9532,5.9519,5.9809,5.986,6.0076,5.9711,5.9716,5.972,0,5.9035,5.9094,5.9286,5.9318,5.9353,5.9439,5.9507,5.9578,5.9621,5.9617,5.9664,5.9626,5.9736,5.9629,5.9782,5.9687,5.9729,5.974,5.9748,5.9758,5.9638,5.9828,6.0144,6.0177,5.9766,5.9762,5.9759,0,5.9242,5.9369,5.95,5.9528,5.9568,5.9631,5.9651,5.9687,5.9735,5.9794,5.9824,5.9896,5.9936,5.9993,5.9976,5.9899,6.0133,6.0024,6.0134,6.0135,6.0187,6.0185,6.0516,6.0214,6.0213,6.0213,6.0212,0,5.9497,5.9617,5.9593,5.9674,5.9807,5.9775,5.9907,5.9919,5.9952,6.0034,5.9978,6.0057,6.0029,6.0106,6.0093,6.0222,6.024,6.0241,6.0237,6.0247,6.0247,6.0275,6.026,6.0221,6.0219,6.0218,6.0216,0,5.9751,5.974,5.9878,5.9904,5.9914,6.0011,6.0034,6.011,6.0108,6.0213,6.0236,6.0234,6.0322,6.031,6.0408,6.0399,6.056,6.0537,6.0546,6.0541,6.0652,6.0643,6.1014,6.1062,6.0728,6.0731,6.0734,0,5.9915,6.0005,6.0041,6.0092,6.0116,6.0199,6.0246,6.0218,6.0271,6.0326,6.0396,6.0478,6.0543,6.0687,6.0696,6.077,6.0749,6.0874,6.076,6.0768,6.0752,6.0748,6.0757,6.0897,6.0901,6.0904,6.0907,0,6.0208,6.0198,6.0268,6.0338,6.0396,6.0449,6.0497,6.0542,6.0518,6.058,6.0669,6.0719,6.0819,6.0902,6.0972,6.0993,6.0948,6.0942,6.0972,6.0984,6.0986,6.0987,6.0609,6.0934,6.0931,6.0929,6.0928,6.0927,6.0423,6.05,6.0537,6.0618,6.0651,6.0697,6.0769,6.0776,6.085,6.0928,6.0907,6.1008,6.1048,6.1137,6.1166,6.1245,6.1199,6.1242,6.1253,6.1265,6.1278,6.0972,6.1258,6.1257,6.1256,6.1255,6.1255,0,6.0714,6.0734,6.0809,6.0877,6.094,6.0889,6.0939,6.0996,6.1085,6.1126,6.1191,6.1293,6.1373,6.1387,6.1464,6.1524,6.1505,6.1545,6.1541,6.1547,6.1314,6.1281,6.156,6.156,6.156,6.156,6.156,6.1559,6.0873,6.1002,6.0996,6.114,6.1159,6.1256,6.129,6.1332,6.1364,6.148,6.1546,6.1554,6.1585,6.1663,6.1735,6.1736,6.1768,6.1817,6.1811,6.1594,6.1563,6.1534,6.1503,6.1824,6.1824,6.2037,6.2039,6.2041]},{"header":{"parameterUnit":"m.s-1","parameterCategory":1,"la1":30.2991,"la2":30.254,"lo1":-89.0895,"lo2":-89.0444,"dy":0.0017,"dx":0.0017,"nx":28,"ny":28,"refTime":"2023-06-19T21:00:00:Z","depth":0,"parameterNumber":3,"parameterNumberName":"V-component_of_WINDS"},"data":[0,0,0,0,0,0,0,0,0,0,0,0,0,0,0,0,0,0,0,0,0,0,0,0,0,0,0,0,0,0,0,0,0,0,0,0,0,0,0,0,0,0,0,0,0,0,0,0,0,0,0,0,0,0,0,0,0,0,-3.0691,-3.0692,0,-3.081,-3.0811,-3.0813,-3.0826,-3.0824,-3.0823,-3.0822,-3.0941,-3.0945,-3.0949,0,0,0,0,0,0,0,0,0,0,0,0,0,-3.0472,-3.0476,-3.0691,-3.0692,-3.0694,-3.081,-3.0811,-3.0813,-3.0826,-3.0824,-3.0823,-3.0822,-3.094,-3.0945,-3.095,0,0,0,0,0,0,0,0,0,0,0,0,0,-3.0576,-3.0477,-3.069,-3.0714,-3.0717,-3.0809,-3.0811,-3.0813,-3.0826,-3.0824,-3.0823,-3.0821,-3.0938,-3.0944,-3.095,-3.1026,0,0,-3.097,-3.0973,0,0,0,0,0,0,0,0,-3.057,-3.0584,-3.0709,-3.0713,-3.0717,-3.0801,-3.0778,-3.0885,-3.0827,-3.0785,-3.0822,-3.082,-3.0896,-3.0905,-3.0932,-3.1031,-3.1037,-3.0971,-3.0974,-3.0977,-3.0979,0,0,0,0,0,0,0,-3.0563,-3.0579,-3.0738,-3.0711,-3.0716,-3.0718,-3.0731,-3.0798,-3.0849,-3.0788,-3.079,-3.0804,-3.0897,-3.0925,-3.0935,-3.1038,-3.097,-3.0976,-3.098,-3.0983,-3.1206,-3.1208,0,0,0,0,0,0,-3.0552,-3.0573,-3.0734,-3.0741,-3.0638,-3.0723,-3.0738,-3.0776,-3.0848,-3.0857,-3.0805,-3.0804,-3.0915,-3.0927,-3.0939,-3.1032,-3.0977,-3.0983,-3.0987,-3.1204,-3.1207,-3.1209,0,0,0,0,0,0,-3.0547,-3.0566,-3.0729,-3.0658,-3.0679,-3.0729,-3.0772,-3.0779,-3.0807,-3.0861,-3.087,-3.0825,-3.0914,-3.093,-3.1004,-3.1036,-3.0986,-3.0992,-3.1202,-3.1205,-3.1208,-3.1219,0,0,0,0,0,0,-3.0541,-3.0564,-3.0594,-3.0658,-3.0682,-3.0794,-3.0774,-3.0783,-3.0819,-3.0818,-3.0881,-3.089,-3.0914,-3.0995,-3.1011,-3.1044,-3.0997,-3.1199,-3.1203,-3.1207,-3.1216,-3.1222,-3.1227,0,0,0,0,0,-3.0533,-3.0591,-3.0595,-3.0615,-3.0721,-3.0795,-3.0809,-3.0837,-3.0821,-3.0851,-3.0886,-3.0888,-3.103,-3.1002,-3.102,-3.1056,-3.1197,-3.1202,-3.1207,-3.1213,-3.1221,-3.1227,0,0,0,0,0,0,-3.0528,-3.06,-3.0605,-3.0687,-3.0735,-3.0798,-3.0836,-3.0843,-3.0896,-3.0893,-3.0924,-3.0938,-3.1012,-3.1042,-3.1009,-3.1133,-3.1112,-3.1121,-3.1111,-3.1119,-3.1124,-3.1115,-3.1002,0,0,0,0,0,-3.0537,-3.0593,-3.0652,-3.0718,-3.0742,-3.0785,-3.0819,-3.0836,-3.0886,-3.0906,-3.0946,-3.0995,-3.105,-3.1086,-3.114,-3.122,-3.1234,-3.1254,-3.126,-3.1264,-3.1271,-3.1315,-3.1325,-3.1224,-3.1224,-3.1224,0,0,-3.0555,-3.0601,-3.0634,-3.0718,-3.0758,-3.0814,-3.0802,-3.0862,-3.0903,-3.0915,-3.0988,-3.102,-3.1075,-3.1153,-3.119,-3.118,-3.1302,-3.127,-3.1273,-3.1278,-3.1321,-3.1331,-3.1339,-3.1228,-3.1227,-3.1227,0,0,-3.0616,-3.0657,-3.0717,-3.0757,-3.0817,-3.0846,-3.086,-3.0922,-3.0943,-3.1018,-3.1028,-3.1077,-3.1173,-3.1212,-3.1245,-3.1322,-3.1326,-3.1339,-3.1368,-3.1411,-3.1419,-3.1426,-3.1454,-3.1463,-3.1346,-3.1346,-3.1346,0,-3.0631,-3.0717,-3.0746,-3.0806,-3.0843,-3.0858,-3.0918,-3.0955,-3.1029,-3.1054,-3.1043,-3.1163,-3.1202,-3.1289,-3.1308,-3.1334,-3.1351,-3.1331,-3.1416,-3.1423,-3.143,-3.1457,-3.1467,-3.1347,-3.1347,-3.1346,-3.1346,0,-3.0731,-3.0791,-3.0832,-3.0904,-3.0946,-3.1005,-3.1043,-3.1081,-3.1095,-3.1124,-3.12,-3.1247,-3.1311,-3.1333,-3.1346,-3.1423,-3.1415,-3.141,-3.1389,-3.1441,-3.1466,-3.1476,-3.1348,-3.1348,-3.1348,-3.1347,0,0,-3.0792,-3.0882,-3.0896,-3.093,-3.0998,-3.1044,-3.1104,-3.1168,-3.12,-3.1251,-3.1302,-3.1382,-3.1378,-3.1415,-3.1433,-3.1471,-3.1529,-3.1461,-3.1463,-3.1472,-3.1616,-3.1619,-3.163,-3.1533,-3.1535,-3.1537,-3.1611,0,-3.0861,-3.097,-3.0999,-3.1091,-3.1146,-3.1161,-3.1214,-3.1261,-3.129,-3.134,-3.1372,-3.1428,-3.1419,-3.1441,-3.148,-3.1514,-3.1558,-3.1509,-3.158,-3.1582,-3.1565,-3.1643,-3.1647,-3.1715,-3.1621,-3.1623,-3.1624,0,-3.0956,-3.101,-3.1108,-3.117,-3.1194,-3.124,-3.1302,-3.135,-3.1403,-3.1422,-3.1464,-3.1479,-3.1541,-3.1518,-3.1604,-3.157,-3.1601,-3.1622,-3.1626,-3.1633,-3.1605,-3.1652,-3.1737,-3.1747,-3.164,-3.1639,-3.1637,0,-3.099,-3.1088,-3.1159,-3.1187,-3.1261,-3.1293,-3.1325,-3.1377,-3.1414,-3.1467,-3.1491,-3.155,-3.1583,-3.1628,-3.1658,-3.1638,-3.1742,-3.1721,-3.1758,-3.1758,-3.1779,-3.1777,-3.1869,-3.1799,-3.1799,-3.1799,-3.1799,0,-3.1064,-3.1123,-3.1175,-3.1219,-3.1286,-3.1318,-3.1383,-3.1415,-3.1461,-3.1511,-3.1528,-3.1574,-3.1611,-3.1663,-3.1687,-3.1754,-3.1769,-3.1785,-3.179,-3.1783,-3.1781,-3.1803,-3.1799,-3.1802,-3.1801,-3.1801,-3.18,0,-3.1112,-3.115,-3.1229,-3.1293,-3.131,-3.1356,-3.1411,-3.1453,-3.1483,-3.1546,-3.1563,-3.1609,-3.1671,-3.1706,-3.1782,-3.1798,-3.1873,-3.1877,-3.1856,-3.1858,-3.1893,-3.1889,-3.2002,-3.2019,-3.1938,-3.1939,-3.194,0,-3.1157,-3.1203,-3.1272,-3.1307,-3.134,-3.1396,-3.1434,-3.1468,-3.1507,-3.1572,-3.1606,-3.1669,-3.172,-3.1817,-3.1857,-3.1916,-3.1921,-3.1956,-3.1929,-3.1921,-3.1921,-3.1918,-3.1922,-3.1961,-3.1961,-3.1962,-3.1962,0,-3.1231,-3.1248,-3.1302,-3.1364,-3.1409,-3.1459,-3.1508,-3.1536,-3.1577,-3.162,-3.1683,-3.1724,-3.1803,-3.1864,-3.1926,-3.1958,-3.1967,-3.1971,-3.1982,-3.1975,-3.1961,-3.1969,-3.1868,-3.1968,-3.1967,-3.1967,-3.1967,-3.1966,-3.1279,-3.1321,-3.1376,-3.1436,-3.1477,-3.1523,-3.1567,-3.1603,-3.1657,-3.1724,-3.1741,-3.1807,-3.186,-3.1945,-3.1978,-3.203,-3.2024,-3.2041,-3.2045,-3.2049,-3.205,-3.1953,-3.2042,-3.2042,-3.2042,-3.2041,-3.2041,0,-3.1354,-3.139,-3.1446,-3.1515,-3.1562,-3.1568,-3.1623,-3.1662,-3.1721,-3.177,-3.1821,-3.1894,-3.1954,-3.1999,-3.206,-3.2093,-3.2099,-3.2108,-3.2106,-3.2113,-3.2052,-3.2036,-3.2103,-3.2103,-3.2103,-3.2103,-3.2102,-3.2102,-3.1398,-3.1469,-3.1493,-3.1584,-3.162,-3.1686,-3.1717,-3.176,-3.1799,-3.188,-3.193,-3.196,-3.2008,-3.2073,-3.2128,-3.214,-3.2161,-3.217,-3.2182,-3.2124,-3.2117,-3.2111,-3.2096,-3.2174,-3.2174,-3.2239,-3.2239,-3.224]}]]